Regional Weather Roundup
Issued by NWS

Home | Current Version | Previous Version | Graphics & Text | Print | Product List | Glossary On
Versions: 1 2 3 4 5 6 7 8 9 10 11 12 13 14 15 16 17 18 19 20 21 22 23 24 25 26 27 28 29 30 31 32 33 34 35 36 37 38 39 40 41 42 43 44 45 46 47 48 49 50
240
ASUS43 KOAX 010910
RWRNE

WEATHER ROUNDUP FOR NEBRASKA
NATIONAL WEATHER SERVICE OMAHA NE
400 AM CDT SAT OCT 01 2016

NOTES: SATELLITE DATA IS BEING USED TO AUGMENT CLOUD COVER ABOVE
       12000 FEET.
       "FAIR" INDICATES FEW OR NO CLOUDS BELOW 12,000 FEET WITH NO
       SIGNIFICANT WEATHER AND/OR OBSTRUCTIONS TO VISIBILITY.

  * THESE STATIONS DO NOT REPORT WEATHER SUCH AS RAIN...SNOW OR FOG.

NEZ001>004-019>022-054>056-011000-
NEBRASKA PANHANDLE

CITY           SKY/WX    TMP DP  RH WIND       PRES   REMARKS
SCOTTSBLUFF    CLOUDY    50  45  83 E6        30.09F
ALLIANCE       CLEAR     46  43  89 SE7       30.09F
CHADRON        CLOUDY    58  46  64 S9        30.04F
KIMBALL        CLEAR     48  45  88 W8        30.13F
SIDNEY         CLEAR     48  43  82 S7        30.12F
$$

NEZ057>060-069>072-079>082-011000-
SOUTHWEST NEBRASKA

CITY           SKY/WX    TMP DP  RH WIND       PRES   REMARKS
NORTH PLATTE   PTCLDY    49  44  83 E3        30.14F
IMPERIAL       CLOUDY    54  45  71 SE8       30.13F
LEXINGTON      CLOUDY    47  43  88 E6        30.15S
MCCOOK         CLOUDY    52  45  77 CALM      30.13F
OGALLALA       CLOUDY    56  47  70 SE3       30.12F
$$

NEZ005>010-023>029-035>040-094-011000-
NORTH CENTRAL NEBRASKA

CITY           SKY/WX    TMP DP  RH WIND       PRES   REMARKS
VALENTINE      PTCLDY    53  44  71 SE6       30.11F
AINSWORTH      CLEAR     48  44  85 S5        30.14S
BROKEN BOW     MOCLDY    50  45  83 SE3       30.14F
O`NEILL        PTCLDY    50  43  79 SE5       30.14F
ORD            PTCLDY    45  41  86 CALM      30.14F
THEDFORD       CLOUDY    48  45  88 CALM      30.14S
$$

NEZ041-046>049-061>064-073>077-083>087-011000-
SOUTH CENTRAL NEBRASKA

CITY           SKY/WX    TMP DP  RH WIND       PRES   REMARKS
GRAND ISLAND   PTCLDY    52  45  77 SE6       30.15F
AURORA         PTCLDY    51  50  95 CALM      30.15F
HASTINGS       PTCLDY    54  44  69 SE5       30.15F
HEBRON         CLOUDY    48  46  92 CALM      30.15S
HOLDREGE       PTCLDY    50  43  77 CALM      30.15S
KEARNEY *      PTCLDY    54  43  66 CALM      30.15S
YORK           MOCLDY    48  46  93 CALM      30.16S
$$

NEZ011>018-030>034-042>045-011000-
NORTHEAST NEBRASKA

CITY           SKY/WX    TMP DP  RH WIND       PRES   REMARKS
NORFOLK        PTCLDY    48  44  86 CALM      30.16S
ALBION         MOCLDY    44  42  91 CALM      30.15F
BLAIR          CLOUDY    57  54  90 CALM      30.14S
FREMONT        MOCLDY    50  49  96 CALM      30.16S
TEKAMAH        CLOUDY    56  53  90 CALM      30.15S
WAYNE          PTCLDY    44  43  96 CALM      30.16F
$$

NEZ050>053-065>068-078-088>093-011000-
SOUTHEAST NEBRASKA

CITY           SKY/WX    TMP DP  RH WIND       PRES   REMARKS
LINCOLN        CLOUDY    50  48  93 N5        30.16F
OMAHA EPPLEY   CLOUDY    58  53  84 N3        30.14F
BEATRICE       PTCLDY    48  48  99 CALM      30.14F
FALLS CITY     CLOUDY    50  50 100 NW3       30.13S
NEBRASKA CITY  CLOUDY    53  52  97 NW3       30.14F
PLATTSMOUTH    CLOUDY    54  51  90 CALM      30.14F
$$

NEZ044-045-051>053-067-011000-
OMAHA AREA

CITY           SKY/WX    TMP DP  RH WIND       PRES   REMARKS
OMAHA EPPLEY   CLOUDY    58  53  84 N3        30.14F
BLAIR          CLOUDY    57  54  90 CALM      30.14S
FREMONT        MOCLDY    50  49  96 CALM      30.16S
MILLARD        CLOUDY    58  54  88 CALM      30.15S
OFFUTT AFB     CLOUDY    57  56  97 W5        30.13F
PLATTSMOUTH    CLOUDY    54  51  90 CALM      30.14F
WAHOO          FAIR      47  46  96 CALM      30.15S
$$




USA.gov is the U.S. government's official web portal to all federal, state and local government web resources and services.